| time (UTC) | temp F | wind direction | speed MPH | gust MPH | rain 1hr in | rain 24hr in | rain mn in | humidity % | barometer mb |
| 20260504194537 | 72 | 234 | 3.0 | 10.0 | 0.00 | 0.00 | 0.00 | 22 | 1008.7 |
| 20260504193031 | 73 | 236 | 2.0 | 8.0 | 0.00 | 0.00 | 0.00 | 22 | 1008.4 |
| 20260504191530 | 74 | 0 | 2.0 | 5.0 | 0.00 | 0.00 | 0.00 | 22 | 1008.3 |
| 20260504190035 | 73 | 350 | 1.0 | 5.0 | 0.00 | 0.00 | 0.00 | 22 | 1008.2 |
| 20260504184535 | 72 | 333 | 1.0 | 7.0 | 0.00 | 0.00 | 0.00 | 23 | 1008.5 |
| 20260504183032 | 73 | 220 | 1.0 | 4.0 | 0.00 | 0.00 | 0.00 | 22 | 1008.9 |
| 20260504181530 | 73 | 336 | 2.0 | 6.0 | 0.00 | 0.00 | 0.00 | 24 | 1008.8 |
| 20260504180032 | 72 | 248 | 2.0 | 8.0 | 0.00 | 0.00 | 0.00 | 25 | 1009.0 |
| 20260504174530 | 71 | 212 | 3.0 | 12.0 | 0.00 | 0.00 | 0.00 | 26 | 1009.2 |
| 20260504173029 | 71 | 348 | 3.0 | 10.0 | 0.00 | 0.00 | 0.00 | 26 | 1009.4 |
| 20260504171533 | 70 | 304 | 1.0 | 7.0 | 0.00 | 0.00 | 0.00 | 27 | 1009.7 |
| 20260504081543 | 44 | 237 | 0.0 | 1.0 | 0.00 | 0.00 | 0.00 | 54 | 1011.2 |
| 20260504044529 | 59 | 0 | 0.0 | 5.0 | 0.00 | 0.00 | 0.00 | 31 | 1011.5 |
| 20260504043039 | 60 | 0 | 0.0 | 4.0 | 0.00 | 0.00 | 0.00 | 31 | 1011.6 |
| 20260504041531 | 61 | 207 | 0.0 | 2.0 | 0.00 | 0.00 | 0.00 | 30 | 1011.7 |
| 20260504040030 | 61 | 208 | 1.0 | 7.0 | 0.00 | 0.00 | 0.00 | 29 | 1011.9 |
| 20260504034533 | 62 | 0 | 0.0 | 1.0 | 0.00 | 0.00 | 0.00 | 30 | 1012.0 |
| 20260504033031 | 62 | 0 | 0.0 | 3.0 | 0.00 | 0.00 | 0.00 | 28 | 1012.0 |
| 20260504031534 | 64 | 0 | 0.0 | 3.0 | 0.00 | 0.00 | 0.00 | 27 | 1012.0 |
| 20260504030031 | 64 | 0 | 0.0 | 5.0 | 0.00 | 0.00 | 0.00 | 27 | 1011.9 |
| 20260504024534 | 63 | 298 | 1.0 | 2.0 | 0.00 | 0.00 | 0.00 | 27 | 1012.0 |
| 20260504023031 | 62 | 0 | 0.0 | 1.0 | 0.00 | 0.00 | 0.00 | 29 | 1011.8 |
| 20260504021532 | 62 | 0 | 0.0 | 0.0 | 0.00 | 0.00 | 0.00 | 28 | 1011.8 |
| 20260504020032 | 64 | 0 | 0.0 | 0.0 | 0.00 | 0.00 | 0.00 | 25 | 1011.6 |
| 20260504014538 | 66 | 0 | 0.0 | 2.0 | 0.00 | 0.00 | 0.00 | 23 | 1011.4 |
| 20260504013037 | 67 | 174 | 0.0 | 5.0 | 0.00 | 0.00 | 0.00 | 23 | 1011.3 |
| 20260504011529 | 67 | 220 | 1.0 | 7.0 | 0.00 | 0.00 | 0.00 | 23 | 1011.3 |
| 20260504010030 | 68 | 243 | 1.0 | 6.0 | 0.00 | 0.00 | 0.00 | 24 | 1011.5 |
| 20260504004539 | 68 | 233 | 2.0 | 10.0 | 0.00 | 0.00 | 0.00 | 24 | 1011.6 |
| 20260504003030 | 67 | 60 | 0.0 | 6.0 | 0.00 | 0.00 | 0.00 | 24 | 1012.0 |
| 20260504001541 | 67 | 163 | 1.0 | 4.0 | 0.00 | 0.00 | 0.00 | 24 | 1012.2 |
| 20260504000032 | 68 | 0 | 0.0 | 1.0 | 0.00 | 0.00 | 0.00 | 28 | 1012.2 |
| 20260503234530 | 68 | 340 | 0.0 | 4.0 | 0.00 | 0.00 | 0.00 | 24 | 1012.5 |
| 20260503233033 | 68 | 326 | 0.0 | 2.0 | 0.00 | 0.00 | 0.00 | 25 | 1012.5 |
| 20260503231528 | 68 | 12 | 3.0 | 7.0 | 0.00 | 0.00 | 0.00 | 29 | 1012.1 |
| 20260503230032 | 69 | 0 | 0.0 | 9.0 | 0.00 | 0.00 | 0.00 | 25 | 1012.2 |
| 20260503224531 | 67 | 0 | 3.0 | 18.0 | 0.00 | 0.00 | 0.00 | 26 | 1012.8 |
| 20260503223031 | 70 | 56 | 1.0 | 7.0 | 0.00 | 0.00 | 0.00 | 22 | 1012.2 |
| 20260503221530 | 71 | 6 | 1.0 | 5.0 | 0.00 | 0.00 | 0.00 | 21 | 1012.2 |
| 20260503220040 | 71 | 45 | 2.0 | 6.0 | 0.00 | 0.00 | 0.00 | 20 | 1012.2 |
| 20260503214530 | 72 | 227 | 1.0 | 7.0 | 0.00 | 0.00 | 0.00 | 19 | 1012.4 |
| 20260503213029 | 73 | 0 | 0.0 | 6.0 | 0.00 | 0.00 | 0.00 | 20 | 1012.4 |
| 20260503211530 | 73 | 240 | 2.0 | 7.0 | 0.00 | 0.00 | 0.00 | 18 | 1012.6 |
| 20260503210032 | 74 | 233 | 3.0 | 11.0 | 0.00 | 0.00 | 0.00 | 17 | 1012.9 |
| 20260503204530 | 77 | 152 | 1.0 | 5.0 | 0.00 | 0.00 | 0.00 | 17 | 1013.2 |
| 20260503203045 | 74 | 205 | 1.0 | 17.0 | 0.00 | 0.00 | 0.00 | 19 | 1013.4 |
| 20260503201534 | 74 | 295 | 1.0 | 6.0 | 0.00 | 0.00 | 0.00 | 17 | 1013.3 |
| 20260503200030 | 73 | 9 | 0.0 | 7.0 | 0.00 | 0.00 | 0.00 | 20 | 1013.4 |